Temperature
22 22 21 21 20 20 22 24 25 25 24 24 24 24 23 22 21 20 21 21 21 21 20 20 20 20 20 20 20 19 19 19 19 19 19 19 19 19 19 19 19 19 19 19 19 19 19 19 18
22 22 21 21 20 21 23 24 24 25 25 25 24 23 23 22 21 20 20 21 21 21 20 20 20 20 20 19 19 19 19 19 19 19 19 19 19 19 19 19 19 19 19 19 19 19 19 18 18
22 22 21 20 21 22 24 25 25 26 25 25 24 23 23 22 21 21 21 21 21 21 20 20 20 20 20 19 19 19 19 19 19 19 19 19 19 19 19 19 19 19 19 19 18 18 18 18 18
23 22 21 21 23 24 25 25 26 25 25 25 24 23 22 22 22 21 21 21 21 21 20 20 20 20 19 19 19 19 19 19 19 19 19 19 19 19 19 19 19 19 19 18 18 18 18 18 18
23 22 21 22 23 25 26 26 26 25 25 24 23 22 22 22 22 21 21 21 21 20 20 20 20 20 19 19 19 19 19 19 19 19 19 19 19 19 19 19 19 19 19 18 18 18 18 18 18
23 21 21 22 24 26 26 26 26 25 24 24 23 22 21 22 21 21 21 21 21 21 20 20 20 20 19 19 19 19 19 19 19 19 19 19 19 19 19 19 19 19 19 18 18 18 18 18 18
23 21 22 23 24 25 26 26 26 25 24 24 23 22 21 21 21 21 21 21 20 20 20 20 20 19 19 19 19 19 19 19 19 19 19 19 19 19 18 18 18 18 18 18 18 18 18 18 18
24 22 23 23 24 25 26 26 26 25 25 24 24 22 21 21 21 21 21 20 20 20 20 20 20 19 19 19 19 19 19 19 19 19 19 18 18 18 18 18 18 18 18 18 18 18 18 18 18
25 22 23 24 25 25 26 26 26 25 25 24 24 23 22 22 21 21 20 20 20 20 20 20 20 19 19 19 19 19 19 19 19 19 18 18 18 18 18 18 18 18 18 18 18 18 18 18 18
25 22 25 26 26 26 26 26 26 25 24 23 23 23 22 22 21 21 20 20 20 20 20 20 19 19 19 19 19 19 19 19 19 19 18 18 18 18 18 18 18 18 18 18 18 18 18 18 18
26 25 27 27 27 27 26 26 26 25 23 23 23 22 22 22 21 21 21 20 20 20 20 19 19 19 19 19 19 19 19 18 18 18 18 18 18 18 18 18 18 18 18 18 18 18 18 18 18
27 27 28 28 28 27 27 26 26 25 24 24 23 23 22 22 21 21 21 20 20 20 19 19 19 19 19 19 19 19 18 18 18 18 18 18 18 18 18 18 18 18 18 18 18 18 18 18 18
27 27 29 29 28 28 27 26 25 25 24 24 23 23 22 22 21 21 21 21 20 20 20 19 19 19 19 19 19 18 18 18 18 18 18 18 18 18 18 18 18 18 18 18 18 18 18 18 18
27 28 28 28 28 28 27 26 25 25 24 24 23 23 22 22 21 21 21 20 20 20 20 20 19 19 19 19 19 18 18 18 18 18 18 18 18 18 18 18 18 18 18 18 18 18 18 18 18
28 27 27 27 28 27 27 25 25 25 24 24 23 23 22 22 22 21 21 21 20 20 20 20 19 19 19 19 18 18 18 18 18 18 18 18 18 18 18 18 18 18 18 18 18 18 17 17 17
26 25 25 27 27 27 26 24 25 25 24 23 23 22 22 22 22 21 21 21 20 20 20 20 19 19 19 18 18 18 18 18 18 18 18 18 18 18 18 18 18 18 18 18 18 18 18 17 17
24 24 25 27 28 27 25 24 25 25 24 23 23 22 22 21 21 21 21 21 21 20 20 20 19 19 19 19 18 18 18 18 18 18 18 17 17 17 17 18 18 18 18 18 18 17 17 17 17
24 25 26 26 28 27 26 24 25 25 24 23 23 22 21 21 21 21 21 21 20 20 20 19 19 19 19 19 18 18 18 18 18 17 17 17 17 17 17 17 17 17 17 17 17 17 17 17 17
27 26 26 27 28 27 25 24 24 24 24 23 22 22 22 21 21 21 21 21 20 20 20 19 19 19 19 18 18 18 18 18 17 17 17 17 17 17 17 17 17 17 17 17 17 17 17 17 17
27 26 26 27 28 26 25 24 24 24 23 23 23 22 22 21 21 21 21 20 20 20 20 19 19 19 18 18 18 18 18 17 17 17 17 17 17 17 17 17 17 17 17 17 17 17 17 17 17
27 27 27 27 27 26 25 23 23 23 24 23 23 23 22 22 21 21 21 20 20 20 20 19 19 19 18 18 18 18 18 18 17 17 17 17 17 17 17 17 17 17 17 17 17 17 17 17 17
27 28 28 28 25 23 24 22 22 22 22 23 23 22 22 22 22 21 21 20 20 20 20 19 19 18 18 18 18 18 18 17 17 17 17 17 17 17 17 17 17 17 17 17 17 17 17 17 17
28 29 28 27 24 23 22 22 21 21 22 22 22 23 22 22 22 21 21 21 20 20 20 19 19 18 18 18 18 18 18 17 17 17 17 17 17 17 17 17 17 17 17 17 17 16 16 16 16
29 26 25 22 21 22 22 22 22 21 22 22 22 22 23 22 22 22 21 21 20 20 20 19 19 18 18 18 18 17 17 17 17 17 17 17 17 17 17 17 16 16 16 16 16 16 16 16 16
27 24 23 22 21 22 22 22 21 22 23 23 22 23 23 23 22 22 21 21 20 20 20 19 19 18 18 18 18 17 17 17 17 17 17 17 17 16 16 16 16 16 16 16 16 16 16 16 16
27 24 23 23 22 21 22 21 22 23 23 24 24 23 23 22 22 22 22 21 21 20 20 19 19 19 18 18 18 17 17 17 17 17 17 16 16 16 16 16 16 16 16 16 16 16 16 16 16
27 25 23 21 22 21 21 22 22 23 23 23 23 23 22 22 22 22 22 21 21 21 20 20 19 19 18 18 18 17 17 17 17 17 17 16 16 16 16 16 16 16 16 16 16 16 16 16 16
27 25 22 21 21 21 22 22 21 22 22 22 22 22 22 22 22 22 21 21 21 20 20 20 19 19 18 18 18 17 17 17 17 16 16 16 16 16 16 16 16 16 16 16 16 16 16 15 15
27 26 22 20 20 21 21 21 23 22 22 22 22 22 22 22 22 22 21 21 21 20 20 19 19 19 18 18 18 18 17 17 17 16 16 16 16 16 16 16 16 16 16 15 15 15 15 15 15
27 25 23 22 22 20 20 21 23 22 22 22 22 22 22 22 22 22 21 21 20 20 20 19 19 19 18 18 18 17 17 17 17 16 16 16 16 16 16 16 16 15 15 15 15 15 15 15 15
Wind_Speed
10 8 3 1 2 4 3 2 5 7 5 6 9 10 9 6 4 5 3 9 11 10 11 13 14 13 12 12 12 11 11 11 11 11 11 11 12 12 12 12 12 12 11 11 11 10 9 9 8
8 5 1 2 4 4 3 4 7 8 9 9 11 11 8 6 6 7 5 9 11 11 11 12 14 13 13 12 12 11 11 11 11 10 10 11 11 11 11 11 11 11 11 10 9 9 9 8 7
6 3 1 2 2 3 3 5 8 9 9 8 6 7 6 5 6 5 8 12 11 10 11 13 14 13 12 12 11 11 11 10 10 9 9 10 10 11 11 11 10 11 10 9 8 8 8 8 8
3 2 2 3 2 2 5 6 9 10 9 9 8 7 5 4 4 9 13 14 12 10 11 13 14 13 12 11 10 10 10 9 9 8 8 9 9 10 10 10 9 10 10 9 8 8 8 8 7
2 2 4 3 2 3 5 8 9 10 6 8 10 8 5 4 12 15 15 13 12 9 9 12 13 12 11 10 10 9 9 8 8 8 8 8 9 9 9 9 9 9 9 9 8 8 8 8 7
2 3 3 2 3 4 5 8 11 13 12 10 9 7 4 6 13 14 13 12 11 10 9 11 12 11 10 9 9 9 8 7 6 7 7 8 8 8 8 8 9 9 8 8 8 8 8 8 8
3 3 1 4 5 5 5 6 9 10 9 6 7 6 4 5 10 12 12 11 10 9 8 8 9 9 9 9 8 8 7 6 6 7 7 7 7 7 8 8 9 9 9 9 9 9 9 9 8
3 3 1 3 5 4 6 7 8 9 8 8 7 7 6 7 10 12 11 10 9 8 6 6 6 6 6 7 8 7 7 6 5 5 6 6 6 6 8 8 9 10 10 10 9 10 9 9 8
3 3 2 4 6 5 7 9 6 6 9 6 5 7 10 13 13 12 10 9 8 7 5 4 4 4 5 6 6 6 6 5 4 3 4 4 3 4 6 7 8 9 10 10 10 10 9 8 8
5 3 5 5 7 7 9 9 7 6 8 8 9 10 12 13 13 12 11 9 7 6 4 3 4 3 4 4 4 4 4 4 3 2 2 2 2 3 4 5 6 7 8 9 10 10 9 7 6
4 5 4 5 8 10 10 7 6 8 7 9 13 14 13 12 11 11 10 9 8 7 5 3 3 3 3 2 3 3 2 2 2 2 2 1 1 2 2 2 3 4 5 5 5 6 6 5 5
2 2 4 5 7 9 9 7 6 7 8 12 14 14 12 12 11 10 9 8 7 7 5 4 4 3 2 2 2 3 2 2 2 2 2 1 0 0 1 1 2 2 2 2 2 2 3 4 5
2 1 2 5 6 8 9 9 8 8 11 14 15 13 12 11 10 8 8 8 7 7 5 4 4 3 2 2 1 3 2 3 3 2 1 2 1 0 0 1 1 1 1 1 1 1 2 2 3
2 1 1 2 4 6 9 8 8 9 14 14 14 12 11 11 10 8 8 7 6 6 5 4 4 3 3 2 2 2 3 3 2 1 1 1 1 1 0 0 0 1 1 2 1 1 2 1 2
1 2 2 1 4 6 10 5 6 13 15 14 13 12 11 9 9 9 9 7 6 5 4 4 4 3 3 2 2 2 2 3 2 1 1 1 1 1 1 0 0 1 1 0 1 1 1 0 1
3 3 2 4 3 5 8 5 6 12 14 13 12 11 10 8 9 9 8 7 7 6 5 4 4 3 2 2 2 2 2 3 2 2 1 1 1 1 1 1 0 1 0 1 1 1 0 1 1
4 1 2 4 4 6 5 5 7 11 13 12 11 11 11 9 8 8 8 8 7 7 5 4 3 3 2 2 2 2 2 2 2 2 2 1 1 1 2 1 0 1 1 1 1 1 1 1 1
3 2 3 3 4 5 5 4 7 9 12 12 11 10 10 10 8 8 8 8 7 6 5 4 3 2 1 2 2 2 3 2 2 2 1 1 1 1 2 1 1 1 2 1 1 1 1 1 1
4 3 4 5 4 3 4 4 5 7 8 10 10 10 10 8 7 7 8 8 7 5 5 3 3 1 1 1 1 1 1 1 1 1 1 1 1 1 2 1 2 2 2 1 1 1 1 0 0
2 2 2 4 2 3 4 3 4 7 10 11 12 11 10 8 7 7 7 7 6 5 5 3 3 2 1 1 1 1 1 0 0 1 1 1 1 1 2 2 2 1 1 1 1 1 1 0 1
3 4 5 4 1 4 5 2 2 4 5 6 9 10 11 12 11 9 8 7 7 6 5 5 3 2 2 2 2 2 2 2 2 2 1 1 1 1 2 2 2 1 2 1 1 2 2 1 1
5 6 5 3 3 1 3 1 4 4 2 4 6 8 9 10 9 9 8 8 7 6 5 4 4 3 2 3 4 4 3 1 1 1 1 1 1 1 2 2 2 2 1 1 1 2 1 2 0
5 1 2 2 4 2 3 2 5 2 4 5 6 8 10 10 10 10 10 9 8 7 6 5 4 3 3 3 4 3 2 1 0 1 1 1 1 1 2 2 2 2 1 1 1 1 1 1 1
1 5 6 6 5 2 3 3 4 4 6 6 7 9 11 11 11 10 9 8 7 6 6 5 5 3 3 3 3 3 3 2 1 1 1 1 1 1 1 1 1 1 1 1 1 1 1 1 1
5 6 4 6 4 3 2 2 6 6 6 7 9 10 11 10 9 8 9 9 9 8 7 6 6 4 3 3 3 3 3 3 2 1 1 0 1 1 1 1 0 0 0 0 0 1 1 1 1
1 8 7 4 4 3 2 2 6 5 4 5 7 9 10 9 8 8 9 10 10 9 8 7 6 5 4 4 3 2 2 2 1 1 1 1 1 1 0 0 0 0 0 0 1 1 0 1 0
1 1 7 7 2 1 2 3 5 1 2 5 6 7 8 9 9 8 8 9 9 9 8 8 8 6 5 4 3 2 2 2 2 2 1 1 0 0 0 1 0 1 0 1 1 1 1 1 1
5 5 6 5 4 0 2 2 4 4 2 4 7 8 7 8 7 7 7 7 7 8 7 7 7 6 5 4 4 3 2 2 2 2 1 1 0 0 1 0 0 1 1 1 1 0 1 1 1
1 2 5 5 6 5 2 6 5 8 7 6 7 7 8 9 8 7 6 6 6 6 7 7 6 5 4 4 3 2 2 2 2 2 1 1 0 1 1 0 0 0 0 1 1 1 1 1 2
4 4 6 5 2 5 5 5 4 6 6 6 7 8 8 8 8 7 6 5 5 6 6 7 6 6 5 4 3 3 2 2 2 1 1 1 1 1 1 1 1 1 1 1 1 1 1 1 2
Wind_Direction
167 164 153 130 45 48 59 78 106 86 71 70 79 86 83 71 95 128 167 142 137 143 150 145 140 135 129 126 123 119 119 119 118 121 122 127 131 132 133 135 138 142 144 144 144 144 145 142 139
160 160 129 48 69 67 59 97 89 98 114 105 85 82 75 66 84 110 126 142 139 139 142 142 138 135 131 128 127 124 123 119 119 122 126 130 134 137 138 139 142 146 147 146 146 147 148 150 150
169 176 111 62 83 120 107 105 110 102 104 97 87 68 68 92 105 124 147 141 132 131 139 141 135 133 129 125 125 126 125 124 126 128 130 135 137 143 146 147 148 150 151 152 153 155 158 163 167
157 111 47 61 86 131 127 118 104 96 76 72 89 70 53 76 112 132 134 134 129 130 139 141 135 134 131 129 129 129 128 129 133 136 137 141 145 148 151 156 158 158 158 158 161 165 169 174 180
92 77 55 51 95 106 109 105 99 92 78 82 88 91 64 55 113 128 133 133 131 131 140 141 135 135 135 136 137 135 135 137 138 141 145 150 154 159 161 166 168 168 169 169 170 174 180 180 186
87 65 70 95 97 88 94 102 100 97 106 102 97 96 78 107 119 130 134 134 133 134 137 141 141 140 139 140 142 142 142 145 148 150 152 156 162 166 170 174 177 177 178 180 184 188 193 193 195
122 98 150 146 115 100 111 105 105 114 115 112 117 97 104 117 125 129 126 126 126 131 134 138 144 148 149 147 147 148 149 155 156 157 158 161 168 177 179 184 189 189 189 191 195 201 204 205 206
151 113 141 142 122 125 125 104 103 112 108 116 113 121 144 152 132 123 117 117 121 121 124 132 139 145 154 163 160 157 155 155 155 160 165 168 177 188 192 196 200 202 200 201 205 208 210 212 213
134 94 172 166 142 147 132 109 98 91 102 97 95 125 143 136 126 115 109 105 112 117 121 133 138 147 156 163 164 166 166 167 170 172 169 173 196 203 205 207 209 210 209 210 214 214 215 217 216
138 160 198 169 152 143 129 121 122 103 96 95 98 110 125 125 127 125 124 123 124 130 142 148 156 163 166 169 169 176 174 178 186 202 209 200 195 210 215 217 216 218 221 222 224 223 223 222 220
158 177 172 147 145 135 127 124 111 120 119 136 138 138 134 129 129 132 135 138 142 147 150 157 155 156 162 167 165 176 174 178 190 200 199 196 199 230 247 234 243 237 232 235 235 236 232 220 217
141 204 158 145 139 133 138 135 118 128 146 142 139 139 136 135 136 137 137 136 136 135 141 145 139 129 143 140 144 163 156 159 186 211 192 159 129 227 240 219 233 238 233 228 233 230 221 212 211
73 208 124 129 131 129 131 133 131 139 138 133 132 133 137 139 140 136 133 131 126 128 134 140 133 125 124 117 124 126 143 153 178 190 189 159 143 137 205 230 235 238 215 203 216 220 192 191 198
230 217 127 143 136 136 133 131 123 147 140 137 136 137 141 140 141 135 132 132 130 131 135 135 127 124 116 116 110 108 132 139 149 160 182 173 164 150 133 307 330 272 230 214 186 172 184 195 198
346 35 6 163 140 149 127 120 149 155 146 144 145 144 141 141 137 139 145 141 138 135 128 124 129 118 118 117 115 107 128 129 126 147 164 148 153 152 158 82 38 291 283 163 114 94 85 206 243
21 41 329 273 154 158 126 163 178 160 150 149 151 148 143 145 144 147 148 144 140 133 123 117 125 115 113 104 97 95 109 115 123 135 108 77 48 99 125 90 3 288 53 92 115 103 82 327 299
19 20 256 282 201 159 136 173 178 165 154 154 156 155 152 152 151 153 154 149 143 136 131 125 117 117 118 100 89 88 93 93 109 110 111 77 74 86 125 122 92 71 77 82 118 107 152 253 300
235 249 255 245 231 152 146 159 164 170 160 163 163 159 159 160 165 160 155 149 143 138 135 133 120 121 124 94 74 63 59 56 75 92 112 94 83 100 125 136 115 101 93 75 76 138 155 205 251
186 210 256 260 239 148 140 125 149 171 163 167 167 166 167 168 162 152 150 149 143 134 128 130 132 135 116 95 92 84 55 36 44 53 74 86 82 95 114 92 92 100 107 121 109 133 85 306 70
206 210 256 288 255 121 108 128 170 177 188 182 175 173 170 162 156 158 154 151 148 145 145 138 141 142 146 157 158 140 145 122 67 357 21 54 77 109 117 112 108 108 118 91 89 109 95 271 109
255 211 220 224 54 80 94 22 216 203 191 185 177 175 171 169 169 172 166 160 155 159 163 159 158 144 135 131 109 90 63 40 30 16 5 347 8 77 94 112 131 120 129 149 163 132 133 193 285
257 240 225 204 99 10 104 212 271 228 223 196 185 173 174 173 171 174 170 164 167 171 168 159 155 141 122 113 113 119 110 106 254 262 322 332 15 77 88 91 104 118 116 132 166 133 143 142 213
240 244 99 118 104 57 28 103 282 205 210 214 202 180 174 178 178 180 177 172 172 171 167 162 149 145 137 130 132 124 114 127 30 26 37 1 354 40 82 93 92 99 116 141 159 110 123 151 171
151 65 45 44 70 34 261 161 263 224 212 210 201 187 181 181 180 181 175 162 164 165 164 157 149 153 149 135 132 134 132 121 92 37 34 5 360 4 27 88 94 113 128 153 203 151 147 166 160
58 82 37 9 15 259 262 148 248 239 215 202 188 183 181 177 174 172 170 166 168 167 166 161 158 157 151 142 144 149 150 148 151 174 180 33 11 352 320 25 79 156 213 202 158 128 138 166 150
200 132 148 185 223 282 346 249 262 248 226 197 167 166 166 168 165 171 175 169 168 170 166 160 158 155 150 147 143 144 146 146 167 175 166 172 210 259 301 61 124 226 173 75 87 80 162 64 125
159 164 161 138 120 69 296 298 317 54 163 154 149 147 157 161 165 165 163 164 164 168 169 165 164 162 163 164 156 153 153 145 153 156 137 141 195 196 93 82 40 329 9 63 87 51 357 9 350
160 156 89 107 131 179 292 262 232 238 205 158 154 150 155 150 148 155 151 157 167 167 163 158 159 164 167 170 170 162 173 172 162 143 147 171 219 46 89 72 331 326 12 52 68 28 341 3 319
35 78 108 118 142 148 208 268 229 203 193 170 159 148 147 153 152 149 150 153 158 153 155 155 153 149 157 166 165 153 159 163 155 155 191 190 187 141 118 169 118 349 34 67 76 339 357 340 309
159 174 145 142 194 151 155 264 266 188 172 155 151 149 148 149 151 147 145 148 150 153 151 153 155 162 170 167 155 160 164 157 157 183 214 175 143 176 158 76 46 19 28 41 64 312 326 312 299
Height
1510 1509 1510 1511 1512 1519 1519 1510 1503 1502 1503 1503 1502 1503 1506 1509 1513 1520 1517 1516 1516 1516 1516 1517 1517 1517 1517 1517 1517 1517 1517 1518 1519 1519 1520 1521 1522 1523 1525 1526 1527 1528 1529 1531 1532 1533 1534 1535 1536
1510 1510 1512 1512 1518 1529 1521 1508 1505 1503 1504 1504 1505 1506 1508 1511 1512 1514 1515 1517 1517 1517 1517 1518 1518 1518 1518 1518 1518 1518 1518 1519 1519 1520 1521 1522 1522 1523 1524 1525 1527 1528 1529 1530 1532 1533 1534 1535 1536
1511 1511 1513 1515 1521 1525 1519 1507 1505 1504 1504 1504 1507 1509 1511 1514 1514 1515 1516 1518 1518 1518 1519 1519 1519 1519 1519 1519 1519 1519 1519 1519 1520 1521 1521 1522 1523 1523 1524 1525 1526 1528 1529 1530 1532 1533 1534 1535 1536
1511 1513 1514 1519 1521 1513 1508 1505 1504 1505 1506 1506 1507 1512 1514 1516 1515 1516 1517 1518 1519 1519 1520 1520 1521 1521 1521 1521 1521 1520 1520 1521 1521 1521 1522 1523 1523 1524 1524 1525 1526 1527 1529 1530 1531 1532 1533 1534 1535
1512 1514 1518 1524 1519 1510 1504 1504 1504 1506 1508 1510 1510 1514 1517 1518 1517 1517 1518 1520 1520 1520 1521 1522 1522 1522 1522 1522 1522 1521 1521 1522 1522 1522 1522 1523 1523 1524 1525 1525 1526 1527 1528 1529 1530 1532 1533 1534 1535
1514 1516 1527 1529 1518 1509 1506 1506 1506 1509 1511 1512 1513 1515 1519 1520 1519 1520 1520 1521 1522 1522 1522 1522 1522 1523 1522 1522 1523 1522 1522 1522 1522 1522 1522 1523 1524 1524 1525 1525 1526 1527 1528 1529 1530 1531 1532 1533 1534
1515 1519 1526 1523 1519 1514 1509 1507 1507 1509 1511 1513 1513 1516 1520 1522 1521 1521 1522 1522 1523 1523 1523 1524 1524 1524 1523 1523 1523 1523 1523 1523 1522 1522 1522 1523 1524 1524 1525 1525 1526 1527 1528 1529 1530 1531 1531 1533 1534
1513 1517 1522 1521 1518 1515 1509 1507 1509 1509 1512 1514 1514 1516 1520 1522 1522 1522 1523 1524 1524 1525 1525 1525 1525 1525 1524 1524 1524 1524 1524 1523 1523 1523 1523 1524 1524 1525 1525 1526 1526 1527 1527 1528 1529 1530 1531 1532 1533
1512 1520 1524 1517 1515 1513 1507 1507 1510 1512 1512 1514 1514 1516 1519 1521 1523 1523 1524 1525 1525 1526 1526 1526 1526 1526 1525 1525 1525 1524 1524 1524 1524 1523 1524 1524 1524 1525 1525 1526 1526 1527 1527 1528 1528 1529 1530 1531 1532
1510 1520 1514 1506 1505 1507 1507 1508 1510 1513 1513 1515 1516 1518 1520 1522 1522 1523 1524 1524 1525 1526 1526 1526 1526 1526 1526 1525 1525 1525 1525 1524 1524 1524 1524 1524 1525 1525 1525 1525 1526 1526 1526 1527 1528 1528 1529 1530 1530
1505 1509 1504 1502 1503 1504 1507 1509 1510 1512 1515 1515 1516 1519 1521 1522 1523 1524 1524 1525 1526 1526 1526 1527 1527 1527 1526 1526 1525 1525 1525 1525 1524 1524 1524 1524 1525 1525 1525 1525 1525 1526 1526 1526 1527 1527 1528 1528 1529
1503 1501 1500 1501 1502 1503 1506 1508 1510 1511 1514 1515 1516 1518 1520 1522 1523 1524 1525 1525 1526 1526 1527 1527 1527 1527 1526 1526 1525 1525 1525 1525 1525 1524 1525 1524 1524 1525 1525 1525 1525 1525 1525 1525 1526 1526 1527 1527 1528
1502 1501 1500 1500 1501 1503 1505 1507 1509 1512 1514 1516 1518 1520 1521 1522 1523 1525 1526 1526 1526 1526 1527 1527 1527 1527 1526 1526 1525 1525 1525 1525 1525 1525 1524 1524 1524 1524 1524 1524 1524 1524 1525 1525 1525 1525 1525 1526 1526
1502 1500 1500 1500 1501 1503 1506 1508 1509 1513 1514 1516 1518 1520 1521 1523 1524 1525 1526 1526 1527 1527 1527 1527 1527 1526 1526 1526 1525 1525 1525 1525 1525 1524 1524 1524 1524 1523 1523 1523 1523 1523 1524 1524 1524 1524 1524 1524 1525
1502 1502 1502 1501 1501 1504 1506 1513 1511 1512 1514 1516 1518 1520 1522 1523 1524 1525 1525 1526 1527 1527 1527 1527 1527 1527 1526 1526 1525 1525 1525 1524 1524 1524 1524 1524 1523 1523 1523 1523 1523 1523 1523 1523 1523 1523 1523 1523 1524
1504 1509 1515 1504 1501 1504 1510 1520 1512 1512 1514 1516 1518 1520 1521 1522 1523 1525 1526 1526 1527 1527 1527 1527 1527 1527 1527 1526 1526 1525 1525 1525 1524 1524 1523 1523 1522 1522 1522 1522 1522 1522 1522 1522 1522 1522 1522 1522 1522
1515 1521 1518 1508 1500 1501 1508 1516 1511 1511 1513 1516 1518 1520 1521 1522 1523 1524 1525 1526 1526 1527 1527 1527 1527 1527 1527 1526 1526 1525 1525 1525 1524 1524 1523 1522 1522 1521 1521 1521 1521 1521 1521 1521 1521 1521 1521 1521 1521
1522 1520 1515 1511 1501 1501 1507 1511 1510 1512 1513 1515 1518 1519 1521 1522 1523 1524 1525 1526 1526 1526 1527 1527 1527 1527 1526 1526 1526 1525 1525 1524 1524 1523 1522 1521 1521 1520 1520 1520 1520 1520 1520 1520 1520 1520 1520 1520 1520
1506 1513 1514 1506 1498 1502 1507 1511 1512 1514 1515 1516 1518 1519 1520 1521 1523 1524 1525 1526 1526 1526 1526 1526 1526 1526 1526 1525 1525 1525 1524 1524 1524 1523 1522 1521 1520 1520 1519 1519 1519 1519 1519 1519 1519 1519 1519 1519 1519
1503 1511 1512 1505 1497 1503 1510 1512 1510 1512 1513 1513 1515 1517 1519 1521 1523 1523 1524 1525 1525 1526 1526 1526 1526 1526 1525 1524 1524 1524 1524 1524 1524 1523 1522 1521 1520 1519 1519 1518 1518 1518 1518 1518 1519 1519 1518 1518 1518
1504 1507 1507 1507 1501 1503 1511 1520 1515 1511 1512 1514 1515 1516 1517 1519 1521 1522 1523 1524 1524 1525 1525 1525 1525 1525 1524 1524 1524 1525 1524 1524 1523 1522 1521 1521 1520 1519 1518 1518 1518 1517 1517 1517 1517 1517 1517 1517 1517
1508 1495 1495 1499 1512 1523 1519 1538 1523 1517 1515 1513 1514 1515 1516 1518 1520 1521 1522 1523 1523 1524 1525 1525 1525 1525 1524 1524 1524 1524 1524 1523 1523 1522 1521 1520 1519 1518 1518 1517 1517 1517 1516 1516 1516 1516 1516 1516 1516
1495 1489 1494 1500 1513 1525 1524 1535 1529 1518 1518 1515 1513 1513 1515 1516 1518 1519 1520 1521 1522 1524 1524 1525 1524 1524 1524 1524 1524 1524 1524 1523 1523 1522 1521 1520 1519 1518 1517 1517 1516 1516 1516 1515 1515 1515 1515 1515 1514
1487 1495 1502 1510 1522 1539 1530 1535 1533 1520 1514 1511 1510 1511 1512 1514 1516 1518 1519 1521 1522 1523 1524 1524 1524 1524 1524 1524 1524 1524 1523 1523 1522 1521 1521 1520 1519 1518 1517 1516 1516 1515 1515 1515 1514 1514 1514 1514 1514
1491 1512 1534 1539 1547 1544 1528 1531 1529 1510 1505 1505 1505 1507 1510 1512 1514 1516 1518 1519 1520 1522 1522 1523 1523 1523 1523 1523 1523 1523 1523 1522 1522 1521 1520 1519 1518 1517 1516 1515 1515 1514 1514 1514 1514 1513 1513 1513 1512
1495 1508 1534 1547 1551 1544 1530 1533 1519 1504 1502 1502 1503 1505 1508 1511 1513 1514 1516 1518 1519 1520 1521 1521 1522 1522 1523 1523 1523 1523 1522 1522 1521 1520 1519 1519 1518 1517 1516 1515 1514 1514 1513 1513 1513 1512 1512 1512 1511
1494 1502 1505 1527 1536 1545 1539 1527 1514 1504 1503 1503 1504 1506 1508 1510 1512 1514 1515 1517 1518 1519 1520 1521 1521 1522 1522 1522 1522 1522 1522 1521 1520 1519 1518 1518 1517 1516 1515 1515 1514 1513 1513 1512 1512 1511 1511 1510 1510
1486 1494 1511 1527 1545 1552 1542 1534 1527 1513 1509 1505 1504 1505 1507 1509 1511 1513 1515 1517 1518 1519 1520 1521 1521 1521 1521 1522 1521 1521 1521 1520 1519 1519 1518 1517 1516 1515 1514 1513 1513 1512 1512 1511 1510 1509 1509 1509 1508
1491 1497 1508 1523 1529 1546 1551 1539 1508 1507 1505 1504 1504 1505 1507 1509 1510 1512 1513 1515 1517 1518 1519 1520 1521 1521 1521 1521 1521 1520 1520 1519 1519 1518 1517 1516 1515 1514 1513 1512 1512 1511 1510 1509 1508 1508 1507 1507 1506
1485 1492 1503 1521 1528 1532 1540 1534 1499 1501 1501 1503 1505 1507 1507 1509 1510 1512 1513 1515 1516 1518 1518 1519 1520 1520 1520 1520 1520 1519 1519 1518 1518 1517 1516 1516 1515 1514 1513 1512 1511 1510 1509 1508 1507 1506 1505 1505 1504